Weather in Lekshur

Russia / Udmurt Republic     57°08′59″N   51°51′26″E
temp.,
°C
wind,
m/s
gust,
m/s
humid.,
%
clouds,
%
prec.,
mm/h
press.,
hPa
HPBL,
m
18 may, tue
tue1801:00+15ne228036 0.0 101827
04:00+13nne24885 0.0 101971
07:00+17nne2464100 0.0 1020279
10:00+21nne3446100 0.0 1020902
13:00+23nne3338100 0.0 10201333
16:00+25ne3336100 0.0 10191617
19:00+21ne2552100 0.0 1019145
22:00+16e3107012 0.0 1020230
19 may, wed
wed1901:00+14e3107411 0.0 1021216
04:00+12e398512 0.0 1022200
07:00+16ese49665 0.0 1022429
10:00+21ese46445 0.0 1022979
13:00+24ese46305 0.0 10211399
16:00+25se45285 0.0 10211621
19:00+22sse374358 0.0 1021380
22:00+15ese366536 0.0 1021101
20 may, thu
thu2001:00+13ese387177 0.0 1021129
04:00+12ese297297 0.0 1022149
07:00+17se365963 0.0 1021217
10:00+23sse344195 0.0 1021976
13:00+26sse45314 0.0 10201895
16:00+26sse56320 0.0 10201985
19:00+23sse48445 0.0 1019762
22:00+16sse310660 0.0 1020201
21 may, fri
fri2101:00+14sse310680 0.0 1019195
04:00+13se310716 0.0 1019179
07:00+18sse411555 0.0 1019392
10:00+23sse5937100 0.0 10191082
13:00+26s6103097 0.0 10182628
16:00+24s5103771 0.0 10172225
19:00+21ssw485661 0.0 10181159
22:00+17ssw3107678 0.0 1018267
22 may, sat
sat2201:00+14ssw3108997 0.1 1019240
04:00+14ssw3108987 0.1 1020271
07:00+17sw4873100 0.0 1021537
10:00+20wsw59490 0.0 10211366
13:00+23wsw594167 0.0 10211932
16:00+20w4860100 0.1 1021779
19:00+13w259499 5.9 1023291
22:00+13sw129486 5.9 102370